• Processing (Info)

  • MPEC 2022-J62 : 2022 JF1

    The following Minor Planet Electronic Circular may be linked-to from your own Web pages, but must not otherwise be redistributed electronically.

    A form allowing access to any MPEC is at the bottom of this page.


    Read MPEC 2022-J61 Read MPEC 2022-J63


    M.P.E.C. 2022-J62                                   Issued 2022 May 9, 01:08 UT
    
         The Minor Planet Electronic Circulars contain information on unusual
             minor planets and routine data on comets.  They are published
        on behalf of Division F of the International Astronomical Union by the
              Minor Planet Center, Smithsonian Astrophysical Observatory,
                              Cambridge, MA 02138, U.S.A.
    
                 Prepared using the Tamkin Foundation Computer Network
    
                                  MPC@CFA.HARVARD.EDU
                URL https://www.minorplanetcenter.net/    ISSN 1523-6714
    
                                    2022 JF1                                 
    
    
    Observations:
         K22J01F* C2022 05 07.26470714 05 30.707+35 45 11.02         21.67GVEJ062V00
         K22J01F  C2022 05 07.26962914 05 32.698+35 45 25.02         21.96GVEJ062V00
         K22J01F  C2022 05 07.27453314 05 34.685+35 45 38.48         22.02GVEJ062V00
         K22J01F  C2022 05 07.27960314 05 36.773+35 45 52.63         21.78GVEJ062V00
         K22J01F KC2022 05 07.32062 14 05 53.52 +35 47 44.8          21.9 RoEJ062291
         K22J01F KC2022 05 07.32834 14 05 56.68 +35 48 06.2          22.0 RoEJ062291
         K22J01F KC2022 05 07.33605 14 05 59.89 +35 48 26.0                oEJ062291
         K22J01F 1C2022 05 07.93175 14 10 35.45 +36 15 13.2          22.3 VXEJ062033
         K22J01F 1C2022 05 07.93441 14 10 36.60 +36 15 20.5          22.1 VXEJ062033
         K22J01F 1C2022 05 07.93707 14 10 37.75 +36 15 28.0          22.4 VXEJ062033
         K22J01F 1C2022 05 07.93974 14 10 38.89 +36 15 35.2          21.9 VXEJ062033
         K22J01F KC2022 05 08.16948 14 12 30.76 +36 26 15.5          21.9 GVEJ062291
         K22J01F KC2022 05 08.17697 14 12 33.98 +36 26 36.4          22.6 GVEJ062291
         K22J01F KC2022 05 08.18446 14 12 37.19 +36 26 58.2                VEJ062291
         K22J01F 1C2022 05 08.94358 14 18 35.53 +36 59 42.0          22.0 VXEJ062033
         K22J01F 1C2022 05 08.94618 14 18 36.68 +36 59 48.5          21.9 VXEJ062033
         K22J01F 1C2022 05 08.94878 14 18 37.85 +36 59 54.9          21.7 VXEJ062033
         K22J01F 1C2022 05 08.95138 14 18 39.01 +37 00 01.7          21.7 VXEJ062033
    
    Observer details:
    033 Karl Schwarzschild Observatory, Tautenburg.  Observers S. Melnikov, C.
        Hoegner, U. Laux, F. Ludwig, B. Stecklum.  Measurer B. Stecklum.  1.34-m
        f/3 Schmidt + CCD.
    291 LPL/Spacewatch II.  Observer T. H. Bressi.  1.8-m f/2.7 reflector + CCD.
    V00 Kitt Peak-Bok.  Observer H. Groeller.  Measurers M. J. Brucker, E. J.
        Christensen, C. E. Woodward, G. A. Farneth, J. B. Fazekas, D. C. Fuls, A.
        R. Gibbs, A. D. Grauer, H. Groeller, R. A. Kowalski, S. M. Larson, G. J.
        Leonard, R. S. McMillan, D. Rankin, R. L. Seaman, A. Serrano, F. C.
        Shelly, K. W. Wierzchos.  2.25-m reflector + 4x4K mosaic CCD.
    
    Orbital elements:
    2022 JF1                                                 Earth MOID = 0.0812 AU
    Epoch 2022 Jan. 21.0 TT = JDT 2459600.5                 Veres                   
    M 306.81651              (2000.0)            P               Q                  
    n   0.44280485     Peri.   65.64567     -0.51007030     +0.86009238             
    a   1.7047517      Node   173.66670     -0.81399156     -0.47955617             
    e   0.3817313      Incl.    4.33048     -0.27793170     -0.17397408             
    P   2.23           H   25.42          G   0.15           U   9                  
    Residuals in seconds of arc
    220507 V00  0.1+  0.0     220507 291  0.1+  0.6-    220508 291  0.4-  0.4-
    220507 V00  0.1-  0.2+    220507 033  0.0   0.1-    220508 291  0.8-  0.0
    220507 V00  0.2-  0.1-    220507 033  0.0   0.0     220508 033  0.3+  0.1+
    220507 V00  0.1+  0.0     220507 033  0.1+  0.4+    220508 033  0.0   0.0
    220507 291  0.2-  0.5-    220507 033  0.1-  0.4+    220508 033  0.0   0.2-
    220507 291  0.3-  0.2+    220508 291  0.0   0.1+    220508 033  0.2-  0.0
    
    Ephemeris:
    2022 JF1                 a,e,i = 1.70, 0.38, 4                   q = 1.0540
    Date    TT    R. A. (2000) Decl.     Delta      r    Elong.  Phase     V
    2022 04 09    12 19 56.9 +12 11 17   0.1466  1.1376   156.9    20.2    22.5
    ...
    2022 04 24    12 54 04.6 +24 05 16   0.1085  1.0901   139.3    36.9    22.3
    ...
    2022 05 02    13 30 43.8 +31 18 52   0.09480 1.0722   130.9    45.2    22.2
    ...
    2022 05 08    14 11 06.8 +36 18 41   0.08776 1.0626   125.6    50.6    22.1
    2022 05 09    14 19 02.8 +37 02 29   0.08687 1.0613   124.8    51.4    22.1
    2022 05 10    14 27 19.1 +37 43 45   0.08606 1.0602   124.0    52.1    22.1
    ...
    2022 05 16    15 23 04.5 +40 42 13   0.08302 1.0552   120.3    55.8    22.2
    ...
    2022 05 24    16 43 41.8 +40 44 22   0.08387 1.0543   117.8    58.1    22.2
    ...
    2022 06 08    18 35 21.1 +31 19 36   0.09879 1.0699   121.5    53.9    22.5
    
    M. P. C. Staff               (C) Copyright 2022 MPC           M.P.E.C. 2022-J62
    


    Read MPEC 2022-J61 Read MPEC 2022-J63


    MPEC number:

    Enter an MPEC number in one of the following forms:

    • 1997-B01 (the full form)
    • J97B01 (the packed version of the full form)
    • B01 (the abbreviated form)